Temperature
16 15 15 15 15 14 15 16 16 17 17 18 19 19 18 17 16 15 14 15 15 15 14 14 13 13 13 12 12 11 11 10 10 10 9 9 8 8 8 7 7 6 6 6
14 13 14 14 15 15 15 16 16 16 17 18 18 17 17 17 16 15 15 14 15 15 14 14 14 13 13 12 12 11 11 10 10 9 9 8 8 7 7 7 6 6 5 5
14 13 12 13 15 14 14 15 16 16 17 18 17 16 16 16 15 14 14 15 15 15 15 14 14 13 13 12 12 11 11 10 10 9 8 8 7 7 7 6 6 5 5 5
13 12 11 15 16 16 15 15 15 16 17 17 17 16 15 14 14 14 14 15 15 15 14 14 13 13 12 12 11 11 10 10 9 9 8 7 7 6 6 6 5 5 4 4
12 13 14 14 13 14 14 15 16 15 16 16 14 13 14 14 14 14 14 14 14 14 14 13 13 12 12 11 11 10 10 9 9 8 7 7 6 6 5 5 5 4 4 3
12 12 13 16 14 13 14 15 16 15 15 15 12 14 16 14 14 14 14 14 14 13 13 12 12 12 11 11 10 10 9 9 8 7 7 6 6 5 5 4 4 4 3 3
12 13 14 15 12 13 14 16 15 14 14 13 13 14 14 14 14 13 13 13 13 13 12 12 11 11 11 10 10 9 8 8 7 7 6 6 5 5 4 4 3 3 2 2
12 12 13 12 11 14 16 15 14 13 13 13 13 13 13 13 13 13 13 12 12 12 11 11 11 10 10 9 9 8 8 7 6 6 5 5 4 4 3 3 3 2 2 1
14 14 14 12 13 14 14 14 14 14 14 14 13 13 13 13 12 12 12 12 11 11 11 10 10 9 9 9 8 7 7 6 6 5 5 4 4 3 3 2 2 1 1 0
12 13 12 11 11 13 13 14 14 14 14 14 13 13 13 12 12 11 11 11 10 10 10 9 9 8 8 7 7 7 6 5 5 4 4 4 3 3 2 2 1 1 0 -0
12 12 10 10 11 12 13 13 13 13 14 13 13 13 12 12 11 11 10 10 10 9 9 8 8 8 7 7 6 6 5 5 4 4 3 3 2 2 1 1 1 -0 -1 -1
14 13 13 14 13 13 12 13 13 13 13 12 12 12 12 11 11 10 10 9 9 8 8 7 7 6 6 5 5 5 4 4 3 3 2 2 1 1 1 0 -0 -1 -1 -2
13 12 12 13 13 13 13 13 13 12 12 12 11 11 11 10 10 9 9 8 8 7 7 6 6 5 5 4 4 4 3 3 2 2 1 1 1 -0 -1 -1 -1 -1 -2 -2
11 12 10 11 12 12 12 12 12 11 11 11 10 10 9 9 9 8 8 7 7 6 6 5 5 4 4 4 3 3 2 2 1 1 0 -0 -1 -1 -2 -2 -3 -3 -3 -3
10 11 11 11 11 11 11 11 11 10 10 9 9 9 8 8 8 7 7 6 6 5 5 4 4 3 3 3 2 2 1 1 0 -0 -1 -1 -2 -2 -3 -3 -4 -4 -4 -5
9 9 10 10 10 10 10 10 10 9 9 8 8 8 7 7 7 6 6 5 5 4 4 3 3 3 2 2 1 1 0 -0 -1 -1 -2 -2 -3 -3 -4 -4 -5 -5 -5 -6
8 7 7 8 9 9 9 9 9 8 8 7 7 6 6 6 5 5 4 4 3 3 3 2 2 2 1 1 0 -0 -1 -1 -2 -2 -3 -3 -4 -5 -5 -5 -6 -6 -6 -6
9 10 10 10 9 8 8 8 7 7 6 6 6 5 5 5 4 4 3 3 2 2 2 1 1 1 0 -0 -1 -1 -2 -2 -3 -3 -4 -4 -5 -6 -6 -6 -6 -7 -7 -7
8 8 8 8 8 8 7 6 6 6 5 5 4 4 4 3 3 3 2 2 1 1 1 0 0 -0 -1 -1 -2 -2 -3 -4 -4 -4 -5 -6 -6 -6 -7 -7 -7 -8 -8 -8
6 6 6 6 6 6 6 5 5 4 4 4 3 3 3 2 2 1 1 1 0 0 -0 -1 -1 -1 -2 -2 -3 -4 -4 -5 -5 -6 -6 -7 -7 -7 -7 -8 -8 -8 -9 -9
5 5 5 5 4 4 4 4 3 3 2 2 2 2 1 1 1 0 0 -0 -1 -1 -1 -2 -2 -2 -3 -4 -4 -5 -5 -6 -6 -7 -7 -7 -8 -8 -8 -9 -9 -9 -10 -10
3 3 3 3 3 2 2 2 2 2 1 1 1 1 0 -0 -0 -1 -1 -1 -2 -2 -2 -3 -3 -3 -4 -5 -5 -6 -6 -6 -7 -7 -8 -8 -8 -9 -9 -9 -10 -10 -10 -10
1 1 1 1 1 1 0 0 0 0 0 -0 -0 -1 -1 -1 -1 -2 -2 -2 -3 -3 -3 -4 -4 -4 -5 -6 -6 -6 -7 -7 -7 -8 -8 -9 -9 -9 -10 -10 -10 -10 -11 -11
-0 0 -0 -0 -0 -0 -1 -1 -1 -1 -1 -1 -1 -2 -2 -2 -2 -3 -3 -3 -4 -4 -4 -4 -5 -5 -6 -6 -7 -7 -7 -8 -8 -8 -9 -9 -10 -10 -10 -10 -11 -11 -11 -11
-1 -1 -1 -1 -1 -2 -2 -2 -2 -2 -2 -2 -3 -3 -3 -3 -3 -4 -4 -4 -5 -5 -5 -5 -6 -6 -7 -7 -7 -8 -8 -8 -9 -9 -10 -10 -10 -10 -11 -11 -11 -11 -12 -12
-2 -2 -2 -2 -2 -2 -3 -3 -3 -3 -3 -3 -3 -4 -4 -4 -4 -5 -5 -5 -5 -6 -6 -6 -7 -7 -7 -8 -8 -8 -9 -9 -9 -9 -10 -10 -10 -11 -11 -11 -11 -11 -12 -12
-3 -3 -3 -3 -3 -3 -3 -4 -4 -4 -4 -4 -4 -4 -5 -5 -5 -6 -6 -6 -6 -7 -7 -7 -7 -8 -8 -8 -9 -9 -9 -9 -10 -10 -10 -10 -11 -11 -11 -11 -11 -12 -12 -12
Wind_Speed
13 7 13 16 20 24 26 25 20 19 21 20 17 15 14 12 10 8 8 7 8 9 10 11 13 14 14 15 14 14 15 15 14 13 12 11 11 10 9 9 9 8 8 8
13 10 11 11 17 22 25 24 26 23 22 18 17 15 15 14 12 11 10 8 8 9 10 12 13 13 14 14 14 14 15 14 13 12 12 11 11 10 10 9 9 9 9 9
13 11 8 14 20 20 18 19 19 23 23 17 14 14 14 12 11 11 10 8 8 8 10 10 11 12 13 13 13 14 14 13 13 12 12 11 10 10 10 10 9 9 9 10
8 11 12 11 9 18 21 21 21 19 17 16 16 13 11 11 11 11 9 8 7 6 7 8 9 10 10 11 12 13 13 12 12 12 12 11 11 11 10 9 9 9 9 10
8 12 11 6 7 12 16 17 19 22 20 16 7 5 9 9 9 9 8 6 4 4 5 6 7 9 10 10 11 11 12 12 12 11 11 11 11 11 9 9 9 9 9 10
8 10 12 9 9 10 10 12 13 17 18 13 8 7 7 4 4 5 4 3 2 3 5 6 7 9 10 10 10 11 11 10 10 10 10 11 10 9 8 8 8 8 9 10
12 11 10 4 8 13 11 8 6 12 14 12 12 9 2 4 3 3 3 3 4 5 5 5 7 8 9 9 9 8 8 8 8 9 9 9 8 8 7 7 8 9 10 10
14 12 11 9 13 14 7 3 5 8 9 11 10 6 4 4 4 4 4 5 5 5 5 5 6 7 7 7 6 6 7 7 7 7 7 6 7 7 7 7 8 9 10 10
13 12 3 15 12 9 4 6 6 7 8 9 8 7 6 5 5 4 5 5 5 5 5 5 5 5 6 5 5 6 6 6 6 6 6 6 7 7 7 7 7 8 8 9
8 9 7 11 8 7 7 6 6 6 7 9 8 8 8 6 6 5 5 5 5 6 6 5 4 4 4 5 5 6 5 5 5 5 5 6 5 6 6 7 7 8 9 10
10 5 5 8 12 10 8 6 5 5 6 8 9 8 8 7 6 6 5 5 5 5 5 5 5 4 4 5 5 5 4 4 4 4 5 6 6 7 8 9 9 9 9 10
11 11 10 10 11 12 10 10 9 8 6 6 7 8 7 7 6 6 6 6 5 5 5 5 5 4 4 4 4 4 4 4 3 4 5 5 6 7 9 12 13 16 17 16
5 6 6 4 5 9 10 9 8 8 8 7 7 7 7 6 6 6 6 6 6 5 5 5 4 4 3 3 4 4 4 4 4 4 5 6 6 7 9 9 13 16 18 19
4 5 4 5 5 7 7 7 7 6 5 6 7 7 7 7 6 6 6 5 5 5 5 4 4 3 3 3 3 4 4 5 5 5 6 6 7 8 8 10 11 11 12 17
7 5 5 6 7 7 7 8 9 7 7 6 7 7 8 7 7 6 5 5 5 5 4 3 3 3 2 3 3 4 4 4 5 6 6 7 7 8 9 11 11 12 12 12
7 6 6 7 8 8 8 9 9 8 8 8 7 7 7 7 7 6 5 5 5 4 3 3 3 2 2 3 4 4 5 6 7 6 7 7 8 9 9 10 11 12 12 12
10 9 9 8 9 9 8 8 8 8 8 8 8 8 8 8 7 6 4 4 3 2 2 2 2 1 2 3 4 4 5 6 8 8 7 8 8 9 10 11 12 12 13 14
9 10 11 11 11 10 9 8 8 9 8 7 9 8 8 7 6 5 4 3 2 1 1 1 1 2 3 3 4 5 5 6 6 7 8 8 9 10 11 12 13 14 14 14
6 7 8 8 9 10 10 9 9 8 9 9 9 8 6 5 5 4 4 3 2 1 1 1 2 3 4 5 5 5 6 7 8 8 9 11 12 11 11 12 13 14 14 13
8 9 10 10 10 10 11 10 10 9 8 9 9 8 6 5 4 3 3 1 1 1 2 3 3 4 4 5 6 6 7 8 9 9 10 10 11 12 12 13 14 14 14 14
11 12 13 13 12 11 11 11 11 10 8 8 8 7 6 4 3 2 1 0 1 1 3 4 4 4 5 6 8 7 8 9 10 10 11 11 12 13 13 13 14 14 14 14
12 13 14 14 14 12 10 9 10 10 9 8 7 6 5 4 2 1 0 1 2 4 4 4 4 6 8 10 8 8 9 10 10 10 11 12 12 13 13 14 14 14 14 14
13 13 14 13 14 12 11 10 9 9 8 7 6 5 4 2 1 0 1 2 3 6 6 5 8 12 14 10 8 9 10 11 11 11 12 12 13 13 14 15 14 14 14 14
14 14 14 13 13 13 11 9 8 7 7 6 5 3 2 1 1 1 2 4 7 8 7 8 12 14 14 8 8 9 10 11 11 12 12 13 13 13 14 14 14 14 15 16
14 14 13 12 11 9 9 8 8 7 6 4 4 3 2 2 2 3 4 5 8 9 7 9 13 14 10 9 9 10 10 11 12 13 13 13 14 14 14 14 14 15 15 15
12 11 10 10 8 7 6 5 5 4 3 3 3 2 3 3 3 4 4 6 8 10 9 8 9 10 9 10 10 11 12 13 14 13 13 14 15 15 15 15 18 16 15 15
12 10 9 8 7 6 5 5 4 3 3 2 2 3 4 4 4 5 6 7 7 8 8 8 9 9 10 10 11 12 12 12 13 13 14 14 14 14 15 17 15 15 15 15
Wind_Direction
225 194 181 200 205 206 215 225 237 245 248 251 253 257 265 269 274 275 266 242 226 221 215 208 205 204 202 200 195 191 191 194 196 193 190 188 188 190 192 198 204 208 216 225
207 195 194 211 214 211 219 228 238 250 257 258 261 263 264 265 265 265 263 251 235 226 219 212 207 204 200 199 194 192 195 197 193 190 188 190 192 192 194 201 207 212 221 230
207 194 199 233 221 214 218 223 229 239 248 252 251 250 253 258 260 258 261 257 240 228 220 214 208 202 200 196 189 191 196 195 191 190 192 194 193 195 200 207 212 220 229 236
177 174 218 235 208 214 222 229 227 238 248 249 251 257 261 256 255 258 257 254 244 230 219 212 203 197 192 186 186 189 194 194 192 192 195 194 197 203 208 213 218 227 235 241
184 208 233 233 201 199 210 233 229 233 242 247 245 258 257 242 238 246 252 248 240 224 208 193 187 181 176 178 182 188 195 196 194 193 194 197 203 209 213 217 225 233 240 246
187 207 226 225 186 182 192 240 227 220 230 229 194 230 245 195 206 224 228 213 193 171 166 170 170 168 170 177 183 193 196 196 193 194 197 202 208 212 216 221 231 239 246 251
201 216 236 195 149 155 193 229 193 202 211 203 201 222 180 142 158 167 158 149 144 144 148 153 157 164 172 179 191 193 188 188 190 195 202 207 210 214 218 225 236 245 253 257
205 215 224 162 158 186 208 148 168 185 191 192 199 196 178 171 163 155 144 139 140 138 132 137 153 165 172 182 179 172 175 183 191 198 200 205 212 219 225 231 242 251 259 265
201 215 192 169 190 201 174 175 181 180 183 181 184 193 189 184 173 160 151 142 141 138 130 133 153 168 171 165 158 165 174 185 192 197 203 209 217 224 231 236 245 255 261 266
203 219 202 196 207 206 199 198 191 185 176 177 184 184 182 176 169 162 155 149 145 143 141 141 149 159 159 153 160 167 179 188 194 205 215 221 224 227 233 240 248 255 262 267
212 207 197 217 216 211 202 198 186 179 180 184 180 178 177 173 169 163 153 150 151 153 149 147 149 151 148 153 162 173 185 196 208 218 228 235 238 239 242 245 247 252 261 266
211 199 195 207 208 202 194 197 192 180 174 176 180 173 166 164 161 157 153 150 150 151 149 148 151 151 153 161 171 180 196 212 223 233 241 247 255 262 247 249 258 258 262 266
198 177 190 178 177 183 194 197 187 182 175 166 167 164 157 152 151 149 149 154 158 156 154 154 157 162 167 173 184 201 218 230 239 245 251 257 262 268 276 270 259 261 263 266
173 149 163 178 172 169 163 153 146 143 145 148 148 147 144 139 141 149 154 157 152 148 152 158 166 177 181 189 204 223 238 242 249 255 259 262 265 269 273 279 284 280 271 269
199 196 167 149 139 137 137 138 137 140 139 136 141 144 145 146 148 147 141 139 140 144 154 166 182 192 190 206 224 239 247 252 257 263 264 265 268 271 273 275 277 281 284 279
173 155 147 149 151 149 150 154 152 153 151 146 142 141 139 135 130 127 131 141 150 161 174 189 211 218 211 227 243 253 256 259 265 269 270 270 270 271 274 276 278 280 281 283
163 173 177 177 172 165 165 165 159 152 146 143 140 134 130 128 125 126 130 139 146 161 183 209 234 248 243 248 258 265 268 267 267 270 269 270 272 273 275 276 277 279 279 281
197 191 183 176 172 164 156 147 142 139 138 137 133 133 136 139 141 139 136 131 127 135 198 236 269 279 272 271 274 274 272 271 270 272 274 274 276 275 276 276 277 279 282 283
164 152 149 149 150 146 142 140 136 131 128 132 133 132 129 128 129 132 135 142 161 226 294 328 300 289 282 281 285 278 275 275 277 277 278 279 280 278 277 277 279 281 283 284
132 125 123 122 123 127 129 128 126 123 123 127 124 120 118 117 120 124 126 138 271 286 296 299 298 292 289 285 286 280 278 279 281 282 282 280 280 281 280 280 281 282 282 282
127 124 120 118 113 111 118 123 123 120 118 120 120 120 118 113 113 120 131 285 337 335 309 299 297 294 293 292 290 285 283 283 283 284 283 283 283 283 282 282 282 282 281 281
121 120 118 116 112 106 103 107 110 112 110 106 105 109 111 108 100 76 342 274 298 312 311 298 295 296 300 300 293 288 285 285 284 283 283 282 282 283 282 282 282 282 281 281
113 113 112 111 110 107 99 96 99 102 103 102 103 105 102 95 62 335 316 316 310 309 308 297 300 303 305 303 293 289 286 285 284 283 282 282 281 281 281 282 281 281 281 280
108 106 106 107 107 104 98 92 90 90 92 89 85 82 78 56 3 343 310 307 312 310 303 299 303 306 308 301 293 289 287 286 285 284 283 282 281 281 280 281 281 281 280 280
104 104 104 104 100 99 102 101 95 90 86 80 69 51 31 4 325 317 315 311 312 311 305 304 306 308 305 295 292 289 287 285 284 285 284 284 284 283 282 282 281 281 280 279
98 95 91 88 92 96 99 97 92 84 76 67 44 22 3 345 325 314 310 309 307 307 306 302 302 302 297 293 291 290 289 289 288 287 284 285 284 283 282 282 281 279 279 278
91 90 89 84 76 76 79 80 78 66 50 36 2 344 337 331 324 320 314 310 309 307 304 302 300 298 296 294 293 291 290 289 287 286 286 285 284 284 283 283 281 280 279 278
Height
1434 1438 1443 1446 1450 1455 1456 1451 1452 1447 1448 1446 1446 1448 1449 1450 1450 1451 1450 1450 1450 1450 1451 1453 1455 1457 1459 1462 1465 1468 1472 1475 1478 1481 1484 1487 1489 1491 1492 1493 1494 1494 1494 1493
1438 1441 1443 1444 1443 1446 1447 1446 1445 1444 1442 1440 1443 1445 1445 1445 1446 1446 1445 1445 1445 1446 1447 1447 1449 1451 1454 1457 1460 1463 1466 1469 1473 1476 1478 1481 1483 1485 1487 1488 1488 1488 1488 1487
1434 1440 1445 1442 1435 1438 1440 1439 1439 1439 1435 1435 1438 1440 1440 1440 1441 1441 1440 1440 1440 1441 1441 1443 1444 1446 1449 1451 1454 1458 1461 1464 1467 1470 1473 1475 1477 1479 1480 1481 1482 1482 1481 1481
1432 1441 1446 1422 1422 1425 1429 1429 1431 1430 1428 1430 1432 1434 1435 1435 1436 1435 1435 1436 1436 1436 1437 1438 1440 1442 1444 1447 1450 1452 1455 1458 1461 1464 1467 1469 1471 1473 1474 1475 1475 1475 1475 1474
1429 1427 1423 1421 1422 1422 1424 1422 1421 1423 1424 1426 1430 1432 1430 1429 1430 1430 1431 1431 1432 1433 1434 1435 1436 1438 1440 1443 1445 1448 1450 1453 1456 1458 1461 1463 1465 1467 1468 1469 1469 1468 1468 1467
1422 1424 1422 1408 1411 1415 1420 1419 1413 1416 1418 1421 1427 1427 1423 1424 1425 1426 1427 1427 1428 1429 1430 1431 1433 1435 1437 1439 1442 1444 1446 1449 1451 1454 1456 1458 1459 1461 1462 1462 1462 1462 1460 1459
1413 1415 1405 1404 1410 1414 1419 1409 1406 1408 1411 1416 1419 1419 1420 1420 1422 1423 1423 1424 1426 1427 1428 1429 1431 1433 1435 1437 1439 1441 1443 1445 1447 1449 1451 1453 1454 1455 1456 1456 1455 1454 1453 1452
1406 1410 1406 1403 1408 1406 1400 1401 1402 1404 1407 1410 1413 1415 1417 1418 1419 1420 1421 1422 1424 1425 1426 1428 1430 1431 1433 1434 1436 1438 1439 1441 1443 1444 1446 1447 1448 1449 1449 1449 1448 1447 1445 1443
1390 1390 1389 1393 1394 1395 1397 1399 1400 1402 1404 1407 1409 1412 1414 1415 1417 1418 1420 1421 1422 1424 1425 1427 1428 1430 1431 1432 1434 1435 1436 1437 1439 1440 1441 1442 1443 1443 1443 1442 1441 1439 1437 1435
1386 1386 1387 1389 1390 1392 1394 1396 1398 1400 1402 1404 1406 1409 1411 1413 1414 1416 1417 1419 1421 1422 1424 1425 1426 1428 1429 1430 1431 1432 1433 1434 1435 1435 1436 1436 1436 1436 1436 1435 1433 1432 1429 1427
1379 1381 1384 1385 1386 1388 1391 1393 1396 1398 1400 1402 1404 1406 1408 1410 1412 1414 1415 1417 1419 1421 1422 1423 1424 1425 1427 1428 1428 1429 1430 1430 1431 1431 1431 1430 1430 1429 1428 1427 1426 1424 1421 1419
1370 1373 1377 1378 1380 1384 1387 1389 1392 1395 1397 1399 1401 1403 1406 1407 1410 1411 1413 1415 1417 1418 1420 1421 1422 1423 1424 1425 1425 1426 1426 1426 1426 1426 1425 1424 1423 1422 1420 1419 1417 1415 1413 1410
1366 1368 1371 1374 1376 1380 1383 1386 1388 1391 1394 1396 1399 1401 1403 1405 1407 1409 1411 1413 1414 1416 1417 1418 1419 1420 1421 1421 1422 1422 1422 1422 1421 1420 1419 1418 1416 1414 1412 1410 1408 1406 1403 1401
1363 1365 1369 1371 1374 1377 1380 1382 1385 1388 1391 1393 1396 1398 1400 1402 1404 1406 1408 1410 1412 1413 1414 1415 1416 1417 1417 1417 1417 1417 1417 1416 1415 1414 1413 1411 1409 1407 1404 1401 1398 1395 1393 1391
1360 1363 1365 1368 1371 1374 1377 1380 1383 1385 1388 1391 1393 1395 1398 1400 1402 1404 1406 1407 1409 1410 1411 1412 1413 1413 1413 1413 1413 1412 1411 1410 1409 1407 1405 1404 1402 1399 1396 1393 1389 1386 1383 1381
1357 1360 1362 1365 1368 1371 1374 1377 1380 1383 1385 1388 1390 1393 1395 1397 1399 1401 1403 1404 1405 1406 1407 1408 1409 1409 1409 1408 1407 1406 1405 1404 1402 1400 1398 1396 1394 1391 1388 1385 1381 1378 1374 1371
1353 1356 1359 1362 1365 1368 1371 1375 1377 1380 1383 1386 1388 1391 1393 1395 1397 1399 1400 1401 1402 1403 1404 1404 1404 1404 1404 1403 1401 1400 1398 1397 1395 1393 1390 1388 1385 1382 1380 1376 1373 1369 1365 1363
1349 1352 1355 1358 1361 1365 1369 1372 1375 1378 1381 1384 1386 1389 1391 1393 1394 1396 1397 1398 1399 1400 1400 1400 1400 1399 1398 1397 1395 1393 1392 1389 1387 1385 1383 1380 1377 1374 1371 1367 1364 1360 1356 1353
1345 1349 1353 1356 1360 1363 1366 1370 1373 1377 1380 1382 1385 1387 1389 1391 1392 1393 1394 1395 1395 1396 1396 1395 1395 1394 1393 1391 1389 1387 1385 1382 1380 1377 1374 1372 1369 1365 1362 1359 1355 1351 1347 1343
1343 1347 1350 1354 1358 1362 1365 1369 1372 1375 1378 1381 1383 1385 1387 1389 1390 1391 1391 1392 1392 1392 1391 1391 1389 1388 1386 1385 1383 1380 1378 1375 1372 1369 1367 1363 1360 1356 1353 1349 1345 1341 1338 1334
1341 1345 1349 1353 1357 1361 1365 1368 1371 1375 1378 1380 1383 1384 1385 1387 1388 1388 1388 1389 1389 1388 1387 1386 1384 1382 1380 1378 1376 1373 1371 1368 1365 1362 1358 1355 1351 1347 1343 1340 1336 1332 1328 1324
1341 1344 1348 1353 1356 1360 1365 1369 1372 1375 1377 1379 1381 1383 1384 1385 1385 1386 1386 1386 1385 1384 1382 1380 1379 1376 1374 1372 1369 1366 1363 1360 1357 1353 1350 1346 1342 1338 1334 1330 1326 1322 1318 1314
1342 1346 1350 1354 1357 1361 1366 1369 1373 1375 1377 1379 1380 1382 1382 1383 1383 1383 1382 1382 1380 1379 1377 1375 1373 1370 1368 1365 1362 1359 1356 1352 1349 1345 1341 1337 1333 1328 1324 1320 1316 1312 1308 1304
1345 1349 1353 1357 1360 1363 1367 1370 1373 1375 1377 1378 1379 1380 1381 1380 1380 1379 1378 1377 1375 1373 1371 1369 1366 1363 1361 1358 1354 1351 1347 1344 1340 1336 1332 1327 1323 1319 1314 1310 1306 1302 1298 1294
1349 1353 1356 1360 1363 1366 1369 1371 1373 1375 1376 1377 1378 1379 1379 1378 1377 1375 1374 1372 1370 1368 1365 1362 1360 1357 1354 1350 1347 1343 1339 1335 1331 1327 1323 1318 1314 1309 1304 1300 1296 1291 1287 1283
1354 1357 1360 1363 1366 1368 1370 1372 1374 1375 1376 1376 1377 1377 1376 1375 1373 1371 1369 1367 1365 1362 1359 1356 1353 1350 1346 1343 1339 1335 1331 1326 1322 1318 1313 1308 1303 1299 1294 1289 1285 1281 1276 1272
1358 1361 1364 1366 1369 1371 1372 1373 1374 1375 1375 1375 1375 1374 1373 1371 1369 1367 1364 1362 1359 1356 1353 1350 1346 1343 1339 1335 1331 1326 1322 1317 1313 1308 1303 1298 1293 1289 1284 1279 1274 1270 1265 1261